Theta_e
327 328 327 327 323 319 319 317 315 313 318 319 320 321 320 319 317 317 318 317 318 318 318 317 316 315 314 313 313 313 311 311 310 310 309 308 307 306 306 306 306 306 306
327 326 327 326 322 314 315 314 316 314 319 319 321 321 320 319 317 317 317 317 317 317 317 317 316 315 314 312 312 312 311 311 310 309 308 306 305 304 303 304 305 304 300
327 324 327 326 321 311 310 317 318 313 316 318 320 321 320 319 317 316 317 317 316 316 316 316 316 315 314 313 312 312 311 310 310 309 308 306 304 302 300 299 299 299 298
326 325 327 325 319 311 311 318 318 317 317 319 320 320 319 318 317 315 316 315 315 315 315 315 315 315 314 313 313 312 311 311 310 310 309 307 304 301 300 299 298 298 299
327 326 326 322 319 312 316 320 320 319 319 319 319 320 320 319 318 317 315 316 315 315 315 314 314 314 313 313 313 312 312 311 311 310 309 309 307 303 302 300 300 300 300
327 325 324 323 320 316 317 320 319 319 319 319 319 320 320 320 319 318 318 316 315 315 315 315 314 314 312 312 313 313 313 312 311 311 310 309 309 307 304 302 302 302 302
325 322 322 322 322 321 320 319 318 318 319 318 319 319 319 320 320 319 319 318 317 317 316 315 315 314 313 312 312 314 314 314 313 311 311 310 310 308 306 305 305 305 305
321 321 321 320 321 321 319 317 317 316 318 317 317 317 315 317 319 319 320 319 319 318 317 318 317 316 315 314 313 312 315 315 316 315 313 311 310 309 308 308 309 309 308
320 319 322 322 320 318 318 317 316 316 316 316 317 316 315 315 315 317 318 318 319 319 319 318 318 318 317 317 316 315 313 313 315 317 316 314 313 311 311 310 311 311 310
320 321 321 320 319 319 317 316 316 314 315 315 317 318 316 317 315 316 315 316 318 318 317 317 317 316 318 318 317 317 316 315 314 313 315 317 315 314 313 312 312 312 312
316 318 317 316 318 317 317 314 315 315 314 315 315 317 320 320 320 318 316 316 315 315 315 315 315 316 317 317 317 317 317 317 316 315 313 312 314 314 313 313 313 313 312
315 315 315 316 316 315 314 313 314 313 315 317 315 316 319 319 320 320 318 317 317 316 315 314 314 314 315 315 315 316 316 314 315 315 315 314 313 313 312 313 312 311 309
315 314 314 314 313 316 315 315 314 314 314 320 318 317 317 318 319 320 320 318 318 319 320 319 319 318 316 315 314 314 314 310 314 315 314 313 314 313 312 310 309 308 307
314 315 317 316 314 315 317 318 316 316 318 319 319 319 319 319 318 320 320 319 318 318 320 321 320 320 320 319 318 316 315 312 312 312 312 312 313 312 311 309 308 305 303
314 314 316 317 317 317 316 319 319 319 319 319 318 318 319 318 318 317 319 320 319 319 313 320 320 321 320 319 319 318 316 317 315 313 312 311 310 310 310 307 305 302 301
314 314 314 316 317 317 316 316 319 319 318 317 318 318 317 317 318 316 318 319 319 319 319 319 318 318 319 318 318 318 317 317 316 312 311 310 310 308 306 304 302 300 299
314 314 314 314 316 316 317 317 318 318 318 318 317 317 317 317 317 317 318 319 319 320 320 319 319 319 318 318 317 316 316 315 314 313 310 308 306 305 303 302 300 299 298
315 314 314 314 315 316 316 316 317 316 317 318 318 318 318 318 319 318 318 319 319 319 320 319 319 319 318 318 317 316 315 314 313 311 308 306 305 303 302 301 300 298 297
316 315 314 314 314 315 315 316 316 316 317 317 317 318 319 319 319 319 320 320 320 320 320 319 319 318 317 316 315 315 314 310 310 308 306 305 304 303 302 300 297 294 292
318 316 315 315 314 313 314 314 315 316 316 316 316 317 317 319 320 320 320 321 320 320 319 318 317 317 315 315 314 310 305 306 306 305 306 305 302 301 299 296 292 289 289
321 319 317 316 315 315 314 314 315 316 317 316 316 317 318 318 319 320 320 320 321 320 318 316 316 314 310 307 309 309 307 305 302 301 301 300 298 296 292 291 290 291 291
324 322 321 319 318 317 317 317 316 317 317 317 317 318 319 319 320 320 320 321 321 320 318 316 315 313 308 309 310 307 304 299 296 297 297 295 292 292 291 291 291 291 291
323 325 324 323 322 321 320 319 319 319 319 319 319 319 319 320 320 321 321 321 321 320 318 317 314 313 311 307 306 301 298 295 293 291 292 292 292 291 291 291 291 291 290
324 323 324 324 323 323 322 321 321 321 319 320 320 320 320 320 321 321 321 320 316 312 311 310 307 306 301 300 299 298 295 293 291 291 290 289 291 290 290 290 289 289 289
324 324 324 324 323 323 323 323 322 322 319 319 319 320 320 320 321 320 319 312 300 295 294 296 296 294 294 293 293 293 290 290 288 288 288 288 289 288 288 288 288 288 288
324 324 324 324 324 323 323 323 323 322 318 317 316 316 316 318 319 319 317 308 293 289 289 289 289 289 288 288 288 288 288 287 287 286 283 284 286 285 285 286 287 287 286
Wind_Speed
36 35 35 36 33 28 29 29 28 29 31 26 14 15 29 27 30 31 27 24 23 21 20 19 18 17 17 17 17 16 15 15 15 15 14 14 13 13 13 12 11 11 11
36 38 35 37 34 31 31 34 28 33 30 18 15 19 26 27 29 29 27 24 22 21 21 19 17 17 16 16 16 16 15 14 14 13 12 13 11 10 11 10 9 9 8
39 41 35 40 35 34 34 33 25 30 24 17 18 16 27 26 27 29 27 25 23 21 20 20 19 17 16 15 15 14 14 13 12 12 12 11 11 9 9 9 8 7 6
42 39 38 40 34 36 41 31 34 30 25 23 21 21 26 25 25 27 26 25 24 21 21 20 19 18 16 15 15 14 14 13 13 13 12 11 10 9 8 8 7 7 5
41 38 38 40 37 38 39 28 34 32 28 26 19 18 24 25 24 23 25 24 24 23 21 19 19 19 18 17 16 15 15 15 15 14 13 12 11 10 8 8 7 6 5
41 41 44 41 42 40 35 37 34 28 28 28 22 18 17 23 24 22 22 22 23 23 22 21 20 20 19 20 19 18 17 17 17 16 15 15 14 13 12 11 10 9 8
41 40 38 42 36 37 37 38 32 32 31 29 25 19 18 18 20 21 24 24 25 24 23 22 22 22 22 23 22 21 21 19 19 18 18 18 18 17 16 14 14 13 12
41 40 41 33 31 36 36 35 33 30 32 30 22 16 3 10 20 19 19 24 26 25 27 25 24 26 25 25 27 27 24 23 23 24 23 23 23 20 19 19 18 17 16
39 40 36 34 34 31 34 32 33 28 27 25 23 9 2 4 6 12 20 22 22 23 24 25 23 25 27 28 28 28 30 28 28 29 29 30 27 24 23 22 21 20 21
40 40 41 31 32 29 29 32 33 33 30 26 20 15 9 11 4 1 12 17 21 26 28 29 29 29 30 31 31 31 31 32 32 33 32 30 30 31 30 28 26 24 24
28 34 37 29 30 32 32 32 33 32 30 28 26 18 13 13 12 4 3 10 23 27 30 33 33 32 36 36 36 36 34 32 33 33 34 34 31 26 25 24 24 22 20
33 30 33 35 29 36 38 34 31 31 29 26 28 20 18 8 11 6 2 4 16 22 34 34 35 36 39 40 41 41 39 38 37 35 34 35 37 35 31 25 23 23 22
31 34 33 37 37 34 37 35 34 33 34 27 26 26 22 17 16 23 18 8 8 16 14 27 32 34 38 40 42 40 41 40 39 39 37 36 39 37 37 33 28 24 21
33 32 34 38 40 38 35 35 35 35 33 29 30 32 24 26 22 20 17 14 3 10 16 18 21 30 35 36 35 35 36 39 41 39 35 33 37 36 35 33 31 28 26
30 32 35 35 36 37 38 33 36 33 33 30 28 29 27 27 27 25 31 29 16 5 4 18 24 32 34 34 38 40 41 41 36 37 36 34 34 36 34 33 31 28 27
31 32 35 36 37 38 38 40 37 34 33 33 36 34 34 34 32 31 34 34 30 21 11 24 29 34 34 35 32 35 38 38 37 36 35 34 35 34 33 30 28 27 26
36 35 41 41 35 38 39 38 37 37 37 38 39 37 38 35 37 35 35 36 34 30 20 28 29 32 30 33 31 32 34 35 35 35 34 34 34 33 31 29 27 27 26
38 38 39 42 41 40 41 42 39 36 37 35 37 38 40 38 39 40 40 38 36 36 30 26 28 28 31 34 39 34 37 39 39 36 33 32 32 32 30 28 27 26 27
40 41 40 42 42 42 42 43 41 41 39 38 37 39 40 39 41 37 38 36 37 37 36 29 26 25 29 29 32 34 38 40 38 36 34 35 34 32 29 26 25 26 27
39 42 44 42 42 44 44 44 43 43 43 42 40 42 41 40 43 40 40 38 36 31 29 27 26 26 29 31 34 31 31 38 38 37 36 37 34 30 25 23 23 20 20
40 40 40 42 43 42 45 45 44 43 42 42 41 43 44 46 50 47 39 37 34 33 28 26 26 22 24 21 28 31 32 27 28 28 29 26 22 20 20 20 22 19 17
38 39 42 42 43 44 46 47 46 42 42 41 42 42 44 45 49 48 48 47 45 39 33 27 27 24 29 34 30 29 27 15 6 23 24 21 17 16 16 21 20 15 14
38 38 38 40 43 44 47 50 51 46 40 42 44 41 40 43 47 46 46 45 45 40 41 36 34 31 28 30 32 25 24 14 6 8 14 9 13 17 16 19 18 16 20
38 39 38 39 38 42 44 48 49 49 46 44 41 42 42 43 45 46 44 41 35 30 31 33 28 20 15 15 18 18 15 12 10 8 5 3 10 15 18 20 21 20 17
32 36 37 37 40 42 40 44 46 49 46 44 41 44 44 45 43 39 34 27 17 11 8 7 11 13 12 13 13 16 13 11 4 2 3 3 10 13 16 19 17 18 18
38 34 33 35 37 39 40 44 45 45 37 36 36 33 33 34 35 34 36 32 26 23 25 25 25 22 19 18 15 13 10 10 8 3 5 4 7 6 6 5 8 12 11
Wind_Direction
167 167 164 169 174 172 169 165 162 166 165 163 172 140 162 152 150 147 150 152 153 153 151 150 150 150 150 150 149 147 145 143 139 135 134 131 128 126 124 125 121 114 108
177 169 171 176 174 170 170 161 160 167 162 159 161 142 161 155 154 151 155 159 160 160 158 157 158 160 162 161 160 158 155 153 150 147 146 141 139 138 130 133 131 122 109
181 176 172 176 175 167 168 163 168 171 167 170 169 145 157 157 159 160 162 165 167 168 168 166 168 171 173 173 172 170 167 167 165 160 165 156 153 151 144 141 141 134 120
185 175 171 172 173 169 169 168 173 170 173 170 166 151 163 158 160 166 168 172 173 175 179 180 180 179 182 187 186 185 183 183 187 184 184 176 175 170 167 165 159 156 152
191 177 170 168 177 172 171 179 172 172 166 168 167 155 157 162 164 165 176 180 181 184 187 191 193 193 194 197 200 198 197 198 200 200 200 196 196 195 199 198 197 194 205
192 181 168 172 177 171 177 173 166 167 169 166 164 161 156 167 171 177 181 186 189 193 196 200 204 209 209 210 209 208 209 208 209 209 210 209 210 213 219 223 225 229 237
176 162 161 165 170 170 166 166 163 168 168 166 163 157 172 185 180 187 198 197 197 199 202 208 213 217 218 222 223 218 218 218 219 219 218 220 218 221 226 233 240 242 245
155 152 155 169 168 166 166 166 164 155 164 169 167 150 141 179 198 205 194 202 207 210 213 215 222 223 227 228 229 228 223 223 226 225 225 224 226 231 232 238 241 243 253
155 157 164 163 160 162 163 166 169 168 166 170 172 159 146 183 153 199 208 208 205 202 209 213 226 231 236 239 238 238 235 231 228 229 231 234 239 241 248 244 243 250 250
165 172 172 172 172 175 175 175 178 184 182 176 191 207 175 151 146 201 214 211 211 217 224 226 234 240 239 239 242 242 239 239 241 237 236 238 237 241 246 247 247 248 255
163 178 183 184 183 183 185 191 191 193 185 193 196 194 181 153 152 139 190 223 232 233 234 238 238 236 237 240 243 244 244 243 244 244 241 240 240 238 235 240 243 247 253
182 182 189 187 190 192 198 204 199 200 194 209 212 207 195 167 198 164 228 191 213 233 237 237 237 240 241 241 244 248 247 250 252 246 244 245 240 240 242 241 243 247 251
192 200 201 201 203 199 203 207 204 204 202 209 213 226 218 215 211 208 216 218 215 236 246 246 246 248 250 251 252 253 251 248 248 248 252 249 239 241 245 246 248 246 246
195 201 204 203 205 209 205 206 209 207 208 214 209 218 217 225 221 231 221 212 233 241 238 240 255 252 254 254 256 253 251 250 251 249 248 246 240 240 242 246 250 247 245
199 206 206 206 209 213 212 213 217 211 213 214 221 238 237 232 234 231 248 244 223 233 243 243 239 252 254 251 256 257 253 252 248 243 241 242 240 238 242 243 241 242 248
204 210 213 211 215 220 220 221 221 217 220 224 230 236 233 233 234 233 245 252 247 240 253 253 254 259 259 258 260 261 256 250 242 235 239 241 235 238 240 237 238 244 253
206 205 215 217 215 218 220 222 218 218 217 222 230 235 238 240 241 241 245 249 246 237 241 260 265 268 254 252 256 259 250 237 237 242 242 236 235 234 233 237 243 251 257
208 208 214 216 217 218 220 221 219 220 224 226 231 236 239 239 242 244 245 245 243 245 241 251 253 260 263 265 269 251 244 243 242 241 234 230 226 228 231 238 247 252 257
210 211 213 213 214 216 218 221 224 228 227 229 228 234 238 237 239 236 237 237 242 243 242 244 252 257 262 266 253 245 242 233 234 235 234 231 226 225 231 236 248 259 268
211 212 214 217 219 220 220 221 222 226 230 232 235 240 239 233 236 236 236 237 238 234 235 238 248 249 252 253 241 234 226 230 230 228 224 223 223 225 227 240 253 260 268
214 216 216 219 221 221 221 221 224 227 230 235 238 239 239 236 242 240 237 237 232 234 236 235 241 239 225 222 221 225 226 221 212 214 212 208 212 235 239 243 254 263 261
218 219 220 221 222 224 226 227 225 228 233 235 237 235 234 237 242 244 246 245 245 234 236 236 242 237 234 230 233 218 212 194 190 211 200 204 204 230 246 253 265 258 263
219 220 220 224 226 228 230 231 232 228 231 234 235 235 235 238 241 241 241 244 239 235 237 240 238 235 240 231 222 206 195 183 154 134 195 212 225 237 244 248 239 255 273
217 219 222 220 223 228 230 231 233 233 230 234 234 234 233 237 240 243 243 234 230 235 239 242 246 236 228 218 213 209 187 157 145 166 174 185 229 249 252 253 267 268 259
216 219 221 223 223 230 230 232 232 233 234 236 238 240 241 243 244 240 229 213 196 154 143 166 155 144 141 140 150 153 125 125 103 45 324 282 263 265 279 272 264 263 267
218 220 221 222 225 229 232 233 234 233 231 231 233 237 239 238 235 230 224 206 164 143 132 123 114 107 106 103 95 100 99 115 119 110 29 279 310 335 316 277 249 235 247